Montana Department of Transportation

Main Content

Accidents and Incidents Report

Hourly Weather Roundup

ASUS45 KTFX 161110

RWRMT 

MONTANA REGIONAL WEATHER ROUNDUP

NATIONAL WEATHER SERVICE GREAT FALLS MT

400 AM MST FRI NOV 16 2018



NOTE: "FAIR" INDICATES FEW OR NO CLOUDS BELOW 12000 FEET WITH NO

SIGNIFICANT WEATHER AND/OR OBSTRUCTIONS TO VISIBILITY.



MTZ001.007-043-161200-

WEST OF THE DIVIDE

  

CITY           SKY/WX    TMP DP  RH WIND       PRES   REMARKS

KALISPELL      CLOUDY    41  35  79 S9        30.01R                  

MISSOULA       LGT RAIN  41  35  79 NW3       30.03R                  

BUTTE          CLOUDY    43  23  45 W7        29.98F                  

MULLAN PASS    SNOW      31  28  89 VRB7      30.02R VSB 1/4 WCI  24  

ANACONDA         N/A     43  23  45 S5        29.98F                  

DEER LODGE       N/A     37  28  70 CALM      29.99F                  

RONAN            N/A     41  39  93 E3        30.02S                  

--------------------------------



MTZ008-052.055-161200-

SOUTHWEST MONTANA

  

CITY           SKY/WX    TMP DP  RH WIND       PRES   REMARKS

BOZEMAN        CLOUDY    44  24  45 N6        29.94F                  

DILLON         FAIR      33  17  51 SW17      30.01F WCI  22          

ENNIS          CLOUDY    39  18  41 S17       30.05F WCI  30          

W YELLOWSTONE  MOCLDY    28  18  64 SW12      30.08F WCI  18          

THREE FORKS      N/A     46  20  36 MISG      29.93F                  

--------------------------------



MTZ009-010-012-014-046-048-049-054-161200-

EAST SLOPES AND CENTRAL MONTANA

  

CITY           SKY/WX    TMP DP  RH WIND       PRES   REMARKS

CUT BANK       CLOUDY    39  32  76 W12       29.88R WCI  32          

GREAT FALLS    CLOUDY    45  33  63 SW18      29.85F                  

MALMSTROM AFB  CLOUDY    46  33  59 W12       29.87R                  

HELENA         FAIR      47  28  47 W8        29.93S                  

AUGUSTA        LGT RAIN  42  31  66 N8        29.89R                  

CHOTEAU          N/A     45  30  57 W16       29.85F                  

POWER          MOCLDY    41  30  64 W8        29.86R                  

RAYNESFORD     LGT RAIN  44  33  65 SW20      29.85S                  

ULM            LGT RAIN  46  32  57 W14       29.89R                  

WHITE SULPHUR    N/A     41  23  48 N7        29.90S                  

--------------------------------



MTZ011-013-016-021-045-047-050-051-161200-

NORTH CENTRAL MONTANA

  

CITY           SKY/WX    TMP DP  RH WIND       PRES   REMARKS

HAVRE          CLOUDY    39  38  96 SW6       29.85S                  

LEWISTOWN      LGT RAIN  40  34  79 NW14      29.86R                  

N BAR RANCH    CLOUDY    39  32  75 NW12G24   29.86S WCI  32          

CHINOOK          N/A     37  37 100 W3        29.84S                  

GRASS RANGE    LGT RAIN  43  34  70 NW13G21   29.81R                  

JUDITH GAP     CLOUDY    44  28  52 NW15G25   29.84S                  

ROY            LGT RAIN  41  36  83 NW25G32   29.81S                  

STANFORD       LGT RAIN  40  35  80 W16       29.86R                  

WINIFRED       LGT RAIN  39  36  88 W15       29.85R WCI  31          

--------------------------------



MTZ017.020-022.027-061-062-161200-

NORTHEAST MONTANA

  

CITY           SKY/WX    TMP DP  RH WIND       PRES   REMARKS

GLASGOW        LGT RAIN  36  34  92 E12       29.80F WCI  28          

GLENDIVE       CLOUDY    32  31  96 NE3       29.83F                  

JORDAN           N/A     35  30  82 W5        29.81R                  

MALTA          CLOUDY    34  32  93 W3        29.80S                  

SIDNEY         MIX PCPN  32  31  96 N3        29.88F FOG              

WOLF POINT     LGT RAIN  35  33  92 E12       29.85F FOG     WCI  27  

POPLAR           N/A     36  34  93 E7        29.86F WCI  30          

SCOBEY           N/A     33  28  82 CALM      29.84F                  

--------------------------------



MTZ028.42-056.058-161200-

SOUTHCENTRAL AND SOUTHEAST MONTANA

  

CITY           SKY/WX    TMP DP  RH WIND       PRES   REMARKS

BAKER          CLOUDY    33  30  88 SE10      29.83F WCI  25BILLINGS       CLOUDY    47  24  40 W6        29.84S                  

LIVINGSTON     CLOUDY    47  21  35 W22G37    29.89F                  

MILES CITY     CLOUDY    36  27  69 S6        29.79F WCI  31          

BIG TIMBER     CLOUDY    50  18  27 W22G32    29.86F                  

EKALAKA          N/A     41  25  53 SE8       29.79F                  

FORSYTH          N/A     36  27  69 CALM      29.80F                  

HARLOWTON      MOCLDY    45  26  48 NW25G35   29.82R                  

ROUNDUP          N/A     42  21  43 W6        29.77R                  

--------------------------------



REGIONAL REPORTS...DAKOTAS

  

CITY           SKY/WX    TMP DP  RH WIND       PRES   REMARKS

WILLISTON      CLOUDY    33  31  92 CALM      29.88F FOG              

MINOT          CLOUDY    35  31  85 S7        29.91S WCI  29          

DICKINSON      CLOUDY    34  32  92 SE8       29.86F WCI  27          

BEACH          DRIZZLE   34  34 100 E6        29.85F WCI  29          

CROSBY         FAIR      30  30 100 CALM      29.89F                  

TIOGA          CLOUDY    32  32 100 NE3       29.89F FOG              

WATFORD CITY   MIX PCPN  34  34 100 CALM      29.88F                  

BISMARCK       CLOUDY    30  29  96 SE3       29.97F                  

GRAND FORKS    CLOUDY    23  18  81 N7        30.02F WCI  15          

FARGO          CLOUDY    24  20  84 N6        30.03S WCI  17          

BUFFALO SD       N/A     33  28  81 E7        29.82F WCI  27          

RAPID CITY     CLOUDY    37  24  59 SE12      29.86F WCI  29          

--------------------------------



REGIONAL REPORTS...WYOMING/IDAHO/WASHINGTON

  

CITY           SKY/WX    TMP DP  RH WIND       PRES   REMARKS

GILLETTE       FAIR      38  23  55 SW15G26   29.83F WCI  29          

SHERIDAN       FAIR      29  24  82 CALM      29.82F                  

BUFFALO WY     MOCLDY    42  24  49 SW3       29.82F                  

CODY           FAIR      47  19  33 NW18G26   29.92R                  

YELLOWSTONE LA   N/A     20  16  84 VRB3      30.10F                  

IDAHO FALLS    CLOUDY    22  15  75 NE3       30.16F                  

SALMON         CLOUDY    27  25  92 CALM      30.13S                  

BOISE          FAIR      31  25  78 S3        30.17F                  

SPOKANE        MOCLDY    38  35  89 CALM      30.11R FOG              

--------------------------------



REGIONAL REPORTS...ALBERTA

  

CITY           SKY/WX    TMP DP  RH WIND       PRES   REMARKS

CALGARY        LGT SNOW  21  18  86 N33G48    30.14R VSB 1   WCI   2  

CARDSTON         N/A     37  28  70 N20G28      N/A  WCI  27          

EDMONTON       LGT SNOW  10   3  72 N13       30.37R WCI  -5          

FORT MCMURRAY  CLEAR     -4  -9  77 NW6       30.53R WCI -16          

HIGH LEVEL     CLEAR    -13 -17  84 VRB2      30.58R                  

LETHBRIDGE     LGT RAIN  37  32  81 NW29G40   29.95  WCI  25          

LLOYDMINSTER   FLURRIES  10   5  79 NE15      30.25R WCI  -6          

MEDICINE HAT   FRZ RAIN  36  32  87 NE12      29.89R WCI  27          

MILK RIVER       N/A     41  30  65 NW24G37     N/A                   

PEACE RIVER    FLURRIES   5  -2  72 N5        30.53R                  

PINCHER CREEK  MOCLDY    37  27  65 N20G37    29.96R WCI  27          

RAYMOND          N/A     36  30  80 N13         N/A  WCI  27          

--------------------------------



REGIONAL REPORTS...SASKATCHEWAN

  

CITY           SKY/WX    TMP DP  RH WIND       PRES   REMARKS

CORONACH         N/A     32  32 100 E5          N/A                   

CYPRESS HILLS    N/A     32  28  86 N8          N/A  WCI  25          

ESTEVAN        CLOUDY    32  32 100 E3        29.90F                  

MOOSE JAW        N/A     23  21  93 NE17G24     N/A  WCI   9          

PRINCE ALBERT  FLURRIES   3   0  85 NE13      30.28R WCI -14          

REGINA         LGT SNOW  21  19  93 NE21      29.98R DRFTSNOWWCI   6  

ROCKGLEN         N/A     32  34 100 E5          N/A                   

SASKATOON      CLOUDY    10   5  79 NE20      30.19R WCI  -8          

SWIFT CURRENT  LGT SNOW  25  23  93 NE22G28   29.91  VSB 1   WCI  10  

VAL MARIE        N/A     34  32  93 NE7         N/A  WCI  28          

--------------------------------